Flag for Germany Weather past 2 weeks in Apolda, Thuringia, Germany

Now
64 °F

Partly sunny.


Feels Like: 64 °F
Forecast: 56 / 72 °F
Wind: 2 mph from Northeast

Location: Erfurt-Bindersleben

Current Time: Sep 18, 2014 at 2:06:18 PM

Latest Report: Sep 18, 2014 at 1:00 PM


Visibility: 19 mi

Pressure: 29.91 "Hg

Humidity: 79%

Dew point: 58 °F

Location of ApoldaLocation

Historic Weather in Apolda — Graph

°F

Apolda temperature yesterday

Maximum temperature yesterday: 71 °F (at 5:00 PM)
Minimum temperature yesterday: 54 °F (at 8:00 AM)
Average temperature yesterday: 63 °F

Past Weeks' High & Low Weather Summary

 TemperatureHumidityPressure
High76 °F (Sep 5, 5:00 PM)99% (Sep 7, 8:00 AM)30.24 "Hg (Sep 7, 8:00 AM)
Low52 °F (Sep 11, 12:00 AM)53% (Sep 16, 4:00 PM)29.85 "Hg (Sep 6, 5:00 PM)
Average60 °F87%30.04 "Hg
* Reported Sep 3 1:00 PM — Sep 18 1:00 PM, Apolda, Weather by CustomWeather, © 2014

Note: Actual official high and low records may vary slightly from our data, if they occured in-between our weather recording intervals... More about our weather records

Advertising

Apolda weather history for previous 24 hours

 ConditionsComfort  
Time TempWeatherWind HumidityBarometerVisibility
1:00 PM
Sep 18
64 °FPartly sunny.2 mph79%29.91 "Hg19 mi
12:00 PM64 °FPartly sunny.1 mph78%29.92 "Hg19 mi
11:00 AM62 °FFog.1 mph85%29.93 "Hg12 mi
10:00 AM57 °FFog.2 mph91%29.94 "Hg10 mi
9:00 AM56 °FFog.2 mph91%29.93 "Hg10 mi
8:00 AM52 °FFog.2 mph95%29.94 "Hg12 mi
7:00 AM53 °FFog.2 mph94%29.93 "Hg9 mi
6:00 AM53 °FPassing clouds.1 mph95%29.92 "Hg12 mi
5:00 AM54 °FClear.2 mph93%29.93 "Hg16 mi
4:00 AM54 °FClear.2 mph93%29.93 "Hg19 mi
3:00 AM56 °FClear.3 mph91%29.93 "Hg19 mi
2:00 AM56 °FClear.3 mph91%29.93 "Hg19 mi
1:00 AM60 °FClear.2 mph81%29.93 "Hg19 mi
12:00 AM62 °FClear.2 mph77%29.93 "Hg25 mi
11:00 PM
Sep 17
63 °FClear.2 mph75%29.93 "Hg25 mi
10:00 PM62 °FPassing clouds.2 mph77%29.94 "Hg25 mi
9:00 PM65 °FPassing clouds.2 mph71%29.93 "Hg28 mi
8:00 PM67 °FPassing clouds.2 mph69%29.92 "Hg28 mi
7:00 PM68 °FPassing clouds.2 mph67%29.91 "Hg28 mi
6:00 PM70 °FPassing clouds.3 mph63%29.91 "Hg28 mi
5:00 PM71 °FMild.3 mph57%29.91 "HgN/A
4:00 PM70 °FPassing clouds.3 mph60%29.92 "Hg25 mi
3:00 PM70 °FPassing clouds.3 mph62%29.93 "Hg25 mi
2:00 PM69 °FPassing clouds.3 mph66%29.94 "Hg19 mi
Weather by CustomWeather, © 2014

See weather overviewHow to use our weather pages